Weather History for South Bend, IN

Change the Weather History Date:

Saturday, December 7, 2013

  Actual Average Record
Temperature  
Mean Temperature 19 °F 31 °F  
Max Temperature 23 °F 38 °F 61 °F (1946)
Min Temperature 14 °F 25 °F 0 °F (2005)
Degree Days  
Heating Degree Days 46 34  
Month to date heating degree days 205 228  
Since 1 July heating degree days 1494 1497  
Cooling Degree Days 0 0  
Month to date cooling degree days 0 0  
Year to date cooling degree days 828 773  
Moisture  
Dew Point 11 °F    
Average Humidity 69    
Maximum Humidity 80    
Minimum Humidity 57    
Precipitation  
Precipitation T in 0.09 in 2.14 in (1966)
Month to date precipitation 0.12 0.64  
Year to date precipitation 38.14 36.03  
Snow  
Snow T in 0.50 in 3.60 in (1968)
Month to date snowfall T 2.9  
Since 1 July snowfall 9.2 8.1  
Snow Depth 0.00 in    
Sea Level Pressure  
Sea Level Pressure 30.60 in    
Wind  
Wind Speed 7 mph (NW)    
Max Wind Speed 14 mph    
Max Gust Speed 18 mph    
Visibility 8 miles    
Events Snow    
T = Trace of Precipitation, MM = Missing Value Source: NWS Daily Summary

Daily Weather History Graph

Daily Weather History Graph

Search for Another Location

Airport:

Trip Planner

Search our weather history database for the weather conditions in past years. The results will help you decide how hot, cold, wet, or windy it might be!

Date:

Astronomy

Dec. 07, 2013 Rise Set
Actual Time 7:59 AM EST 5:14 PM EST
Civil Twilight 7:27 AM EST 5:45 PM EST
Nautical Twilight 6:52 AM EST 6:20 PM EST
Astronomical Twilight 6:19 AM EST 6:54 PM EST
Moon 11:40 AM EST (12/7) 10:59 PM EST (12/7)
Length of Visible Light 10h 18m
Length of Day
9h 15m
Waxing Crescent, 29% of the Moon is Illuminated
Dec 7
Waxing Crescent
Dec 9
First Quarter
Dec 17
Full
Dec 25
Last Quarter
Jan 1
New

Hourly Weather History & Observations

Time (EST) Temp. Windchill Dew Point Humidity Pressure Visibility Wind Dir Wind Speed Gust Speed Precip Events Conditions
12:54 AM 23.0 °F 11.7 °F 12.9 °F 65% 30.48 in 10.0 mi NW 11.5 mph - 0.00 in   Overcast
1:41 AM 21.2 °F 10.1 °F 14.0 °F 74% 30.46 in 7.0 mi WNW 10.4 mph - 0.00 in Snow Light Snow
1:54 AM 21.9 °F 10.4 °F 14.0 °F 72% 30.50 in 7.0 mi NW 11.5 mph - 0.00 in Snow Light Snow
2:26 AM 21.2 °F 10.9 °F 12.2 °F 68% 30.47 in 10.0 mi WNW 9.2 mph - 0.00 in   Overcast
2:54 AM 21.9 °F 9.2 °F 12.0 °F 66% 30.52 in 9.0 mi NW 13.8 mph - 0.00 in   Overcast
3:54 AM 21.0 °F 9.9 °F 10.9 °F 65% 30.53 in 10.0 mi NW 10.4 mph - 0.00 in   Overcast
4:54 AM 21.0 °F 11.4 °F 10.9 °F 65% 30.54 in 10.0 mi WNW 8.1 mph - 0.00 in   Overcast
5:54 AM 21.0 °F 11.4 °F 12.0 °F 68% 30.56 in 10.0 mi NW 8.1 mph - N/A   Overcast
6:54 AM 21.0 °F 9.3 °F 10.0 °F 63% 30.58 in 10.0 mi NW 11.5 mph - 0.00 in   Overcast
7:15 AM 21.2 °F 10.9 °F 10.4 °F 63% 30.54 in 7.0 mi NNW 9.2 mph - 0.00 in Snow Light Snow
7:45 AM 19.4 °F 8.6 °F 10.4 °F 68% 30.55 in 9.0 mi NW 9.2 mph - 0.00 in Snow Light Snow
7:54 AM 19.9 °F 7.9 °F 10.0 °F 65% 30.60 in 10.0 mi NW 11.5 mph - 0.00 in   Overcast
8:54 AM 21.0 °F 10.6 °F 10.0 °F 63% 30.63 in 9.0 mi NNW 9.2 mph - 0.00 in Snow Light Snow
9:36 AM 21.2 °F 10.1 °F 12.2 °F 68% 30.60 in 1.8 mi WNW 10.4 mph - 0.00 in Snow Light Snow
9:47 AM 19.4 °F 9.5 °F 12.2 °F 74% 30.60 in 2.0 mi NW 8.1 mph - 0.00 in Snow Light Snow
9:54 AM 21.0 °F 9.9 °F 12.9 °F 71% 30.64 in 4.0 mi WNW 10.4 mph - 0.00 in Snow Light Snow
10:54 AM 21.0 °F 8.6 °F 12.9 °F 71% 30.66 in 9.0 mi WNW 12.7 mph - 0.00 in Snow Light Snow
11:05 AM 21.2 °F 10.9 °F 12.2 °F 68% 30.62 in 10.0 mi WNW 9.2 mph - 0.00 in   Overcast
11:13 AM 21.2 °F 9.5 °F 10.4 °F 63% 30.63 in 10.0 mi NW 11.5 mph - 0.00 in   Overcast
11:49 AM 21.2 °F 10.1 °F 12.2 °F 68% 30.62 in 2.5 mi NW 10.4 mph - 0.00 in Snow Light Snow
11:50 AM 21.2 °F 10.9 °F 12.2 °F 68% 30.62 in 2.5 mi NW 9.2 mph - 0.00 in Snow Light Snow
11:54 AM 21.0 °F 9.3 °F 12.9 °F 71% 30.66 in 3.0 mi NW 11.5 mph - 0.00 in Snow Light Snow
11:58 AM 21.2 °F 8.3 °F 12.2 °F 68% 30.62 in 2.5 mi NW 13.8 mph - 0.00 in Snow Light Snow
12:14 PM 21.2 °F 12.6 °F 12.2 °F 68% 30.61 in 9.0 mi NNW 6.9 mph - 0.00 in   Overcast
12:32 PM 21.2 °F 11.7 °F 10.4 °F 63% 30.61 in 5.0 mi NW 8.1 mph - 0.00 in Snow Light Snow
12:54 PM 21.0 °F 10.6 °F 10.9 °F 65% 30.65 in 9.0 mi NNW 9.2 mph - 0.00 in   Overcast
1:54 PM 21.0 °F 11.4 °F 8.1 °F 57% 30.64 in 10.0 mi NNW 8.1 mph - 0.00 in   Overcast
2:54 PM 21.9 °F 11.7 °F 10.0 °F 60% 30.63 in 10.0 mi WNW 9.2 mph - N/A   Mostly Cloudy
3:54 PM 19.9 °F 10.1 °F 9.0 °F 62% 30.64 in 10.0 mi NNW 8.1 mph - N/A   Mostly Cloudy
4:17 PM 19.4 °F 9.5 °F 8.6 °F 63% 30.59 in 10.0 mi NNW 8.1 mph - N/A   Scattered Clouds
4:54 PM 19.0 °F 9.0 °F 9.0 °F 65% 30.63 in 10.0 mi NW 8.1 mph - N/A   Clear
5:23 PM 17.6 °F 9.3 °F 8.6 °F 68% 30.59 in 10.0 mi NW 5.8 mph - N/A   Mostly Cloudy
5:54 PM 19.0 °F 13.9 °F 10.9 °F 71% 30.65 in 10.0 mi WNW 3.5 mph - N/A   Overcast
6:54 PM 19.0 °F - 12.0 °F 74% 30.65 in 10.0 mi Calm Calm - 0.00 in   Overcast
7:54 PM 19.0 °F - 10.0 °F 68% 30.65 in 10.0 mi Calm Calm - N/A   Mostly Cloudy
8:03 PM 17.6 °F - 10.4 °F 73% 30.60 in 10.0 mi Calm Calm - N/A   Scattered Clouds
8:54 PM 16.0 °F - 10.0 °F 77% 30.63 in 10.0 mi Calm Calm - N/A   Clear
9:54 PM 15.1 °F - 9.0 °F 77% 30.63 in 10.0 mi Calm Calm - N/A   Clear
10:54 PM 16.0 °F - 10.0 °F 77% 30.61 in 10.0 mi Calm Calm - N/A   Clear
11:54 PM 14.0 °F - 9.0 °F 80% 30.60 in 10.0 mi Calm Calm - N/A   Clear